Regional Weather Roundup
Issued by NWS State College, PA

Home | Current Version | Previous Version | Text Only | Print | Product List | Glossary Off
Versions: 1 2 3 4 5 6 7 8 9 10 11 12 13 14 15 16 17 18 19 20 21 22 23 24 25 26 27 28 29 30 31 32 33 34 35 36 37 38 39 40 41 42 43 44 45 46 47 48 49 50

000
ASUS41 KCTP 280710
RWRCTP

REGIONAL WEATHER ROUNDUP
NATIONAL WEATHER SERVICE STATE COLLEGE PA
300 AM EDT FRI APR 28 2017

Note: "fair" indicates few or no clouds below 12,000 feet with no
significant weather and/or obstructions to visibility.

* = STATION THAT DOES NOT REPORT PRECIPITATION /E.G. RAIN...SNOW...ETC/
    THUNDER OR FOG.

PAZ002>004-007>009-013>016-020>023-029>032-280800-
WESTERN PENNSYLVANIA

CITY           SKY/WX    TMP DP  RH WIND       PRES   REMARKS
ERIE           PTCLDY    50  42  74 SW6       29.90S
MEADVILLE      PTCLDY    47  42  83 CALM      29.92R
FRANKLIN*      CLEAR     46  41  81 NW5       29.93R
NEW CASTLE     PTSUNNY   50  48  93 CALM      29.95R
BEAVER COUNTY  NOT AVBL
BUTLER*        CLEAR     54  46  76 NW3       29.93R
PITTSBURGH INT CLEAR     54  51  90 W3        29.92R
PITTSBURGH     CLEAR     56  48  74 W7        29.92R
INDIANA*       CLEAR     57  55  94 VRB5      29.93R
LATROBE        CLEAR     57  55  94 SW5       29.92R
WASHINGTON CO* CLEAR     48  46  93 CALM      29.95R
$$

PAZ004>006-010>012-017>019-024>028-033>037-041-042-045-046-049>053-280800-
CENTRAL PENNSYLVANIA

CITY           SKY/WX    TMP DP  RH WIND       PRES   REMARKS
BRADFORD       CLOUDY    50  47  89 W5        29.90R
DUBOIS         MOCLDY    53  47  79 NW12      29.89R
CLEARFIELD     PTCLDY    60  55  83 SW6       29.88R
JOHNSTOWN      CLEAR     57  52  83 W13       29.90S
ALTOONA        PTCLDY    60  58  92 SW5       29.89R
STATE COLLEGE  PTCLDY    59  58  98 CALM      29.87R
WILLIAMSPORT   FOG       63  62  97 CALM      29.82R VSB 1/4
SELINSGROVE    FOG       59  59 100 CALM      29.84S VSB 1
FT INDIANTOWN  MOCLDY    61  61 100 CALM      29.83S
CAPITAL CITY   CLEAR     65  60  84 CALM      29.84R
HARRISBURG     PTCLDY    62  61  96 W5        29.83R
YORK           CLEAR     68  60  75 SW7       29.84R
$$

PAZ038>040-043-044-047-048-054-055-060>062-067>071-280800-
EASTERN PENNSYLVANIA

CITY           SKY/WX    TMP DP  RH WIND       PRES   REMARKS
SCRANTON       PTCLDY    66  60  81 SW3       29.85R
MOUNT POCONO   CLOUDY    59  59 100 SW7       29.88R FOG
ALLENTOWN      CLEAR     61  57  87 NE5       29.84S
QUAKERTOWN*    CLOUDY    59  59 100 CALM      29.86S
READING        CLEAR     67  61  81 CALM      29.83R
LANCASTER      CLEAR     63  60  90 CALM      29.84R
COATESVILLE    SUNNY     64  61  88 CALM      29.87R
POTTSTOWN      CLEAR     60  59  96 CALM      29.86R
BLUE BELL      CLOUDY    59  59 100 CALM      29.86R
DOYLESTOWN     CLOUDY    59  59 100 CALM      29.84F
WILLOW GROVE   NOT AVBL
NORTH PHILA    LGT RAIN  63  61  93 NE6       29.86F
PHILADELPHIA   CLOUDY    66  63  90 S5        29.85S
$$




USA.gov is the U.S. government's official web portal to all federal, state and local government web resources and services.